Terminal Aerodrome Forecast
Issued by NWS Milwaukee/Sullivan, WI

Home | Current Version | Previous Version | Text Only | Print | Product List | Glossary On
Versions: 1 2 3 4 5 6 7 8 9 10 11 12 13 14 15 16 17 18 19 20 21 22 23 24 25 26 27 28 29 30 31 32 33 34 35 36 37 38 39 40 41 42 43 44 45 46 47 48 49 50
000
FTUS43 KMKX 281140
TAFMKE
TAF
KMKE 281140Z 2812/2918 18004KT P6SM FEW050 SCT070 BKN100
     FM281300 19005KT P6SM -SN OVC050
     FM281400 18006KT 4SM -SN OVC035
     FM281600 18007KT P6SM OVC050
     FM290000 18008KT P6SM OVC015
     FM291300 19007KT P6SM OVC008
     FM291700 20008KT P6SM BKN015=

USA.gov is the U.S. government's official web portal to all federal, state and local government web resources and services.